This is the latest recevied weather packets stored in our database for station/object NO3U. If no packets are shown the sender has not sent any weather packets the latest 10 day(s).
| Time | Temp. | Humidity | Pressure | Rain* | Wind** | Luminosity | Snow |
|---|---|---|---|---|---|---|---|
| 1777986544 | 20° C | 63% | 1008.7 hPa | 0 mm | - | 175 W/m² | - |
| 1777986242 | 20° C | 63% | 1008.5 hPa | 0 mm | - | 164 W/m² | - |
| 1777985939 | 19.44° C | 63% | 1008.7 hPa | 0 mm | - | 190 W/m² | - |
| 1777985637 | 20° C | 63% | 1009 hPa | 0 mm | - | 183 W/m² | - |
| 1777985332 | 20° C | 62% | 1008.8 hPa | 0 mm | - | 123 W/m² | - |
| 1777985029 | 19.44° C | 63% | 1008.7 hPa | 0 mm | - | 222 W/m² | - |
| 1777984725 | 18.89° C | 64% | 1008.6 hPa | 0 mm | - | 181 W/m² | - |
| 1777984422 | 18.89° C | 67% | 1008.8 hPa | 0 mm | - | 108 W/m² | - |
| 1777984118 | 18.89° C | 66% | 1008.8 hPa | 0 mm | - | 102 W/m² | - |
| 1777983816 | 19.44° C | 65% | 1008.7 hPa | 0 mm | - | 109 W/m² | - |
| 1777983512 | 19.44° C | 65% | 1008.5 hPa | 0 mm | - | 153 W/m² | - |
| 1777983209 | 18.89° C | 67% | 1008.7 hPa | 0 mm | - | 170 W/m² | - |
| 1777982905 | 18.33° C | 69% | 1008.5 hPa | 0 mm | - | 116 W/m² | - |
| 1777982601 | 18.33° C | 67% | 1008.7 hPa | 0 mm | - | 56 W/m² | - |
| 1777982300 | 18.89° C | 68% | 1008.6 hPa | 0 mm | - | 65 W/m² | - |
| 1777981998 | 18.89° C | 68% | 1008.6 hPa | 0 mm | - | 82 W/m² | - |
| 1777981696 | 18.33° C | 68% | 1008.6 hPa | 0 mm | - | 106 W/m² | - |
| 1777981392 | 18.33° C | 68% | 1008.6 hPa | 0 mm | - | 92 W/m² | - |
| 1777981088 | 18.33° C | 67% | 1008.7 hPa | 0 mm | - | 96 W/m² | - |
| 1777980784 | 17.78° C | 72% | 1008.5 hPa | 0 mm | - | 85 W/m² | - |
| 1777980480 | 17.78° C | 69% | 1008.5 hPa | 0 mm | - | 72 W/m² | - |
| 1777980178 | 17.78° C | 71% | 1008.5 hPa | 0 mm | - | 70 W/m² | - |
| 1777979873 | 17.78° C | 70% | 1008.5 hPa | 0 mm | - | 64 W/m² | - |
| 1777979569 | 17.22° C | 72% | 1008.5 hPa | 0 mm | - | 57 W/m² | - |
| 1777979265 | 17.22° C | 72% | 1008.3 hPa | 0 mm | - | 45 W/m² | - |
* Rain latest hour (hover to see other rain measurements)
** Current wind speed in m/s (hover to see current wind gust speed)